#timestamp,LO_Frequency,Hit,StdDev 
1620383875.7,286047006.2,P
1620383895.6,286047006.1,P
1620383915.4,286047006.7,P
1620383935.2,286047006.7,Y
1620383955.1,286047002.8,P
1620383956.0,286047002.8,N
1620383975.8,286047000.4,N
1620383995.7,286047000.1,N
1620384015.5,286047002.8,N
1620384035.3,286047001.9,N
1620384055.2,286047001.4,N
1620384075.0,286047001.3,N
1620384075.9,286047001.3,N
1620384095.7,286047001.6,N
1620384115.6,286047004.4,N
1620384135.4,286047002.1,N
1620384155.3,286047000.1,N
1620384175.1,286047001.8,N
1620384195.8,286047001.4,N
1620384215.7,286047002.2,N
1620384235.5,286047001.4,N
1620384255.4,286047001.8,N
1620384275.2,286047003.8,N
1620384295.0,286047000.2,N
1620384295.9,286047000.2,N
1620384315.8,286047002.8,N
1620384335.6,286047001.8,N
1620384355.4,286047004.1,N
1620384375.3,286047001.8,N
1620384395.1,286047002.3,N
1620384415.9,286047002.3,N
1620384435.7,286047002.3,N
1620384455.5,286047004.0,N
1620384475.4,286047001.6,N
1620384495.2,286047000.2,N
1620384515.1,286047000.0,N
1620384516.0,286047000.0,N
1620384535.8,286047002.2,N
1620384555.6,286046999.9,N
1620384575.5,286046999.7,N
1620384595.3,286047002.7,N
1620384615.2,286046999.9,N
1620384635.9,286047002.8,N
1620384655.7,286047001.8,N
1620384675.6,286047000.0,N
1620384695.4,286047000.2,N
1620384715.2,286047000.1,N
1620384735.1,286047000.0,N
1620384736.0,286047000.0,N
1620384755.8,286047000.3,N
1620384775.7,286047002.6,N
1620384795.5,286047002.3,N
1620384815.3,286047000.2,N
1620384835.2,286047002.4,N
1620384855.0,286047000.6,N
1620384855.9,286047000.6,N
1620384875.8,286047000.9,N
1620384895.6,286046998.4,N
1620384915.4,286046999.4,N
1620384935.3,286047000.5,N
1620384955.1,286046999.9,N
1620384975.8,286047000.2,N
1620384995.7,286047000.7,N
1620385015.5,286047000.5,N
1620385035.4,286046999.9,N
1620385055.2,286047000.8,N
1620385075.0,286047000.8,N
1620385075.9,286047000.8,N
1620385095.8,286046998.2,N
1620385115.6,286047000.9,N
1620385135.4,286047001.2,N
1620385155.3,286046997.1,N
1620385175.1,286046995.0,Y
1620385195.9,286046993.3,P
